Simultaneous Nadir Overpasses (SNOs) Predictions

Prediction of SNOs between FY3D and AQUA Satellite Orbit:

Table of predicted SNOs for the next 14.0 days since TLE Epoch: 8/1/2020
Index Date (FY3D) Time (FY3D) Lat,Lon (FY3D) SZA (FY3D ) Date (AQUA) Time (AQUA) Lat,Lon (AQUA) SZA (AQUA ) Distance(km) Time Diff (sec)
1 08/03/2020 00:15:27 -57.09,-147.41 79.87 08/03/2020 00:16:37 -57.08,-147.42 79.95 0.59 70
2 08/03/2020 01:04:15 63.49, 24.59 93.70 08/03/2020 01:04:11 63.50, 24.61 93.70 1.12 4
3 08/03/2020 01:49:45 -79.12,-131.82 104.13 08/03/2020 01:48:31 -79.42,-132.97 103.97 41.08 74
4 08/05/2020 16:33:23 -51.74, -34.37 73.93 08/05/2020 16:34:37 -51.69, -34.26 74.03 9.41 74
5 08/05/2020 17:20:38 63.44, 140.46 94.42 08/05/2020 17:20:40 63.44, 140.44 94.43 0.81 2
6 08/05/2020 18:10:08 -67.63, -47.92 89.88 08/05/2020 18:08:54 -67.63, -47.89 89.82 1.57 74
7 08/08/2020 09:37:23 62.22,-104.66 96.36 08/08/2020 09:37:30 62.22,-104.64 96.34 1.45 7
8 08/08/2020 10:26:34 -67.46, 67.80 89.01 08/08/2020 10:25:26 -67.46, 67.80 88.94 0.09 68
9 08/11/2020 01:53:44 62.33, 11.34 96.97 08/11/2020 01:53:57 62.33, 11.32 96.96 0.93 13
10 08/11/2020 02:42:57 -67.46,-176.29 88.28 08/11/2020 02:41:55 -67.46,-176.32 88.20 1.61 62
11 08/13/2020 18:10:28 61.15, 126.33 98.89 08/13/2020 18:10:46 61.16, 126.34 98.86 0.80 18
